Location: Unspecified
(56.5167°N, 0.0000°E)
Time: 15:24:45
(UTC+02:00)

Cosmos 1674 - Visible Passes

Search period start: 22 July 2014 00:00
Search period end: 01 August 2014 00:00
Orbit: 516 x 543 km, 82.5° (Epoch: 21 July)

Date Brightness Start Highest point End Pass type
(mag) Time Alt. Az. Time Alt. Az. Time Alt. Az.
23 Jul 5.7 04:51:24 10° NNE 04:54:20 20° ENE 04:57:13 10° ESE visible
24 Jul 5.7 04:40:48 10° NNE 04:43:38 19° ENE 04:46:26 10° ESE visible
25 Jul 5.7 04:30:12 10° NNE 04:32:56 18° ENE 04:35:38 10° ESE visible
26 Jul 5.7 04:19:36 10° NNE 04:22:13 17° ENE 04:24:49 10° E visible
27 Jul 5.7 04:09:01 10° NNE 04:11:31 16° ENE 04:14:00 10° E visible
28 Jul 5.7 03:58:25 10° NNE 04:00:48 15° ENE 04:03:10 10° E visible
29 Jul 5.7 03:47:51 10° NNE 03:50:06 15° ENE 03:52:19 10° E visible
30 Jul 5.7 03:37:16 10° NNE 03:39:23 14° ENE 03:41:28 10° E visible
31 Jul 5.7 03:26:43 10° NNE 03:28:40 13° NE 03:30:36 10° E visible
31 Jul 2.9 05:01:28 10° N 05:05:23 81° ENE 05:09:14 10° SSE visible
